Location: ???????
(55.4362°N, 38.1183°E)
Time: 21:07:01
(UTC+00:00)

M-CUBED/EXP-1 PRIME - Pass Details

Date: 11 December 2021
Orbit: 426 x 650 km, 101.7° (Epoch: 26 January)

Event Time Altitude Azimuth Distance (km) Brightness Sun altitude
Rises 14:57:25 0° 157° (SSE) 2,867 ? -15.6°
Reaches altitude 10° 14:59:32 10° 158° (SSE) 1,992 ? -15.9°
Maximum altitude 15:03:54 85° 247° (WSW) 652 ? -16.5°
Drops below altitude 10° 15:08:27 10° 337° (NNW) 2,072 ? -17.1°
Sets 15:10:41 0° 338° (NNW) 2,991 ? -17.4°
